Location: Newark
(33.6439°N, 114.9881°W)
Time: 13:44:12
(UTC+00:00)

Envisat - Pass Details

Date: 21 March 2019
Orbit: 764 x 766 km, 98.2° (Epoch: 24 April)

Event Time Altitude Azimuth Distance (km) Brightness Sun altitude
Rises 02:29:11 0° 171° (S) 3,217 6.1 -8.6°
Reaches altitude 10° 02:31:30 10° 173° (S) 2,295 5.3 -9.1°
Maximum altitude 02:36:32 73° 258° (WSW) 800 3.3 -10.2°
Drops below altitude 10° 02:41:38 10° 343° (NNW) 2,308 5.8 -11.2°
Sets 02:43:57 0° 346° (NNW) 3,238 6.6 -11.7°
